Addison, TX

2:05 PM CST on January 20, 2017 (GMT -0600)
Addison

Weather History for KADS - March, 2014

Change the Weather History Date:

Wednesday, March 26, 2014

  Actual Average Record
Temperature  
Mean Temperature 54 °F -  
Max Temperature 60 °F 67 °F 82 °F (2004)
Min Temperature 48 °F 50 °F 33 °F (2013)
Degree Days  
Heating Degree Days 11    
Growing Degree Days 4 (Base 50)    
Moisture  
Dew Point 34 °F    
Average Humidity 51    
Maximum Humidity 70    
Minimum Humidity 40    
Precipitation  
Precipitation 0.00 in - - ()
Sea Level Pressure  
Sea Level Pressure 30.11 in    
Wind  
Wind Speed 11 mph (SE)    
Max Wind Speed 22 mph    
Max Gust Speed 34 mph    
Visibility 11 miles    
Events Rain    
Averages and records for this station are not official NWS values.
T = Trace of Precipitation, MM = Missing Value Source: NWS Daily Summary

Daily Weather History Graph

Daily Weather History Graph

Search for Another Location

Airport or City:

Trip Planner

Search our weather history database for the weather conditions in past years. The results will help you decide how hot, cold, wet, or windy it might be!

Date:

Astronomy

Mar. 26, 2014 Rise Set
Actual Time 7:23 AM CDT 7:43 PM CDT
Civil Twilight 6:58 AM CDT 8:08 PM CDT
Nautical Twilight 6:29 AM CDT 8:37 PM CDT
Astronomical Twilight 6:00 AM CDT 9:06 PM CDT
Moon 4:19 AM CDT (3/26) 3:35 PM CDT (3/26)
Length of Visible Light 13h 09m
Length of Day
12h 20m
Waning Crescent, 21% of the Moon is Illuminated
Mar 26
Waning Crescent
Mar 30
New
Apr 7
First Quarter
Apr 15
Full
Apr 22
Last Quarter

Hourly Weather History & Observations

Time (CDT) Temp. Dew Point Humidity Pressure Visibility Wind Dir Wind Speed Gust Speed Precip Events Conditions
12:15 AM 51.8 °F 28.8 °F 41% 30.23 in 10.0 mi ESE 8.1 mph - N/A   Clear
12:35 AM 51.6 °F 28.4 °F 41% 30.22 in 10.0 mi East 6.9 mph - N/A   Clear
12:55 AM 50.9 °F 28.4 °F 42% 30.21 in 10.0 mi ESE 6.9 mph - N/A   Clear
1:15 AM 50.9 °F 28.8 °F 43% 30.20 in 10.0 mi ESE 8.1 mph - N/A   Clear
1:35 AM 50.7 °F 29.3 °F 44% 30.20 in 10.0 mi ESE 8.1 mph - N/A   Clear
1:55 AM 50.4 °F 29.1 °F 44% 30.21 in 10.0 mi ESE 8.1 mph - N/A   Clear
2:15 AM 50.2 °F 29.3 °F 45% 30.20 in 10.0 mi ESE 10.4 mph - N/A   Clear
2:35 AM 50.2 °F 28.6 °F 43% 30.21 in 10.0 mi ESE 8.1 mph - N/A   Clear
2:55 AM 50.0 °F 27.9 °F 42% 30.21 in 10.0 mi ESE 9.2 mph - N/A   Clear
3:15 AM 49.3 °F 27.7 °F 43% 30.20 in 10.0 mi ESE 6.9 mph - N/A   Clear
3:35 AM 49.1 °F 27.5 °F 43% 30.19 in 10.0 mi ESE 9.2 mph - N/A   Clear
3:55 AM 48.9 °F 27.5 °F 43% 30.18 in 10.0 mi ESE 11.5 mph - N/A   Clear
4:15 AM 48.7 °F 27.3 °F 43% 30.18 in 10.0 mi ESE 9.2 mph 16.1 mph N/A   Clear
4:35 AM 48.2 °F 26.6 °F 43% 30.18 in 10.0 mi ESE 9.2 mph - N/A   Clear
4:55 AM 48.6 °F 26.1 °F 42% 30.18 in 10.0 mi SE 13.8 mph 17.3 mph N/A   Clear
5:15 AM 48.4 °F 25.9 °F 42% 30.18 in 10.0 mi ESE 11.5 mph 18.4 mph N/A   Clear
5:35 AM 48.2 °F 26.2 °F 42% 30.17 in 10.0 mi ESE 11.5 mph 16.1 mph N/A   Clear
5:47 AM 48.2 °F 24.8 °F 40% 30.17 in 13.0 mi ESE 12.7 mph 18.4 mph N/A   Mostly Cloudy
6:47 AM 48.2 °F 24.8 °F 40% 30.16 in 13.0 mi ESE 9.2 mph 23.0 mph N/A   Scattered Clouds
7:47 AM 48.2 °F 24.8 °F 40% 30.16 in 13.0 mi ESE 13.8 mph 23.0 mph N/A   Mostly Cloudy
8:47 AM 50.0 °F 26.6 °F 40% 30.17 in 13.0 mi ESE 16.1 mph 24.2 mph N/A   Mostly Cloudy
9:47 AM 48.2 °F 30.2 °F 50% 30.18 in 10.0 mi ESE 13.8 mph 19.6 mph N/A   Drizzle
10:47 AM 48.2 °F 33.8 °F 58% 30.19 in 10.0 mi SE 10.4 mph 18.4 mph N/A   Mostly Cloudy
11:47 AM 48.2 °F 37.4 °F 66% 30.15 in 13.0 mi SE 11.5 mph 23.0 mph N/A Rain Light Rain
12:59 PM 53.6 °F 35.6 °F 51% 30.08 in 13.0 mi SE 17.3 mph 28.8 mph N/A Rain Light Rain
1:47 PM 53.6 °F 37.4 °F 54% 30.06 in 13.0 mi SE 13.8 mph 25.3 mph N/A   Overcast
2:47 PM 53.6 °F 41.0 °F 62% 30.05 in 13.0 mi SE 15.0 mph 23.0 mph N/A Rain Light Rain
3:55 PM 55.4 °F 42.8 °F 63% 30.00 in 13.0 mi SE 12.7 mph 18.4 mph N/A   Overcast
4:47 PM 59.0 °F 42.8 °F 55% 29.96 in 13.0 mi SE 11.5 mph 31.1 mph N/A   Overcast
5:47 PM 59.0 °F 44.6 °F 59% 29.95 in 13.0 mi SSE 15.0 mph 26.5 mph N/A   Overcast
6:47 PM 60.8 °F 44.6 °F 55% 29.95 in 13.0 mi South 18.4 mph 34.5 mph N/A   Overcast
7:47 PM 60.8 °F 46.4 °F 59% 29.93 in 13.0 mi South 18.4 mph 28.8 mph N/A   Overcast
10:15 PM 59.2 °F 48.4 °F 67% 29.94 in 10.0 mi South 18.4 mph 28.8 mph N/A   Overcast
10:35 PM 59.2 °F 48.4 °F 67% 29.95 in 10.0 mi South 19.6 mph 29.9 mph N/A   Overcast
10:55 PM 59.2 °F 48.7 °F 68% 29.94 in 10.0 mi South 18.4 mph 26.5 mph N/A   Overcast
11:15 PM 59.2 °F 49.1 °F 69% 29.94 in 10.0 mi South 18.4 mph 27.6 mph N/A   Overcast
11:35 PM 59.0 °F 49.1 °F 70% 29.93 in 10.0 mi South 17.3 mph 29.9 mph N/A   Overcast
11:55 PM 59.0 °F 49.3 °F 70% 29.92 in 10.0 mi South 21.9 mph 27.6 mph N/A   Overcast